sat.trackr.live / text

‹ back to catalog

SUPERVIEW NEO-2 06

NORAD 68378 · 2026-062B

PAYLOAD ACTIVE UNKNOWN

§ Identity

Operator
Country
PRC
Launch date
2026-03-25
Launch site
TAISC
Launch vehicle
Mass (kg)
RCS (m²)

External: N2YO · Heavens-Above · Gunter

§ Orbital elements

Epoch: 2026-09-19T13:41:00.470112Z

Period
94.75 min
Inclination
97.4392°
Eccentricity
0.0001252
Mean motion
15.19716192 rev/d
Perigee alt
505.8 km
Apogee alt
507.6 km
Semi-major
6,884.8 km
B*
3.4088e-5
RAAN
268.5408°
Arg perigee
111.5377°
Mean anomaly
248.5991°
Rev number
2,698

§ Raw data

SUPERVIEW NEO-2 061 68378U 26062B   26262.57014433  .00000660  00000+0  34088-4 0  99912 68378  97.4392 268.5408 0001252 111.5377 248.5991 15.19716192 26981

JSON: /api/v1/satellites/68378 · /tle

For live sub-satellite position, see the globe view (requires WebGL).

§ Visibility from observer

Set your observer location to see the next 7 days of passes ≥ 10°. The values pass through the URL so the page stays shareable.

No JS? Fill the form by hand. The geolocation button needs JavaScript.